Lid_Strength_Index
11 10 9 8 7 7 5 4 4 4 5 5 5 5 5 5 5 5 4 4 3 2 2 2 2 3 3 3 3 3 3 3 5 14 14 14 14 14 14 12 12 10 9
12 10 9 8 8 7 7 6 5 5 5 6 6 6 6 6 5 5 5 5 5 2 3 2 3 5 4 4 4 6 4 5 9 15 16 16 16 16 15 15 14 13 11
12 11 10 9 9 8 7 7 6 6 6 7 7 7 7 7 7 7 7 7 7 5 3 4 8 7 9 9 8 9 9 10 11 14 16 16 16 16 15 15 15 15 14
12 11 11 10 9 9 8 8 8 8 8 8 9 9 9 9 8 8 8 9 11 10 9 8 9 9 10 10 11 12 12 12 13 14 15 16 16 16 15 15 17 16 16
13 12 12 11 10 9 9 9 9 9 10 10 10 10 10 9 9 10 10 10 13 13 13 11 11 13 13 12 12 13 12 14 14 15 16 16 16 15 15 16 17 17 17
14 12 11 12 11 10 10 10 10 10 10 10 11 11 11 10 9 9 10 11 12 13 15 14 14 13 13 12 12 12 12 14 15 15 15 16 16 15 16 16 16 17 18
13 12 12 12 12 11 11 11 11 11 11 11 11 12 12 11 10 11 11 12 14 15 15 15 16 16 15 15 15 15 15 13 13 14 15 15 15 15 15 15 15 15 17
14 13 12 12 12 12 12 12 12 12 12 12 12 12 12 11 10 11 12 13 13 14 16 15 16 16 16 16 16 17 17 17 17 17 17 16 15 14 15 14 16 18 17
16 13 12 12 13 13 12 12 11 12 12 12 11 12 12 12 11 12 13 13 15 16 16 16 17 16 16 15 17 17 18 17 15 14 14 14 13 13 15 16 17 17 19
16 14 13 12 12 13 13 13 12 12 12 12 12 12 13 13 12 13 14 14 16 16 16 16 16 16 16 16 18 18 20 20 19 20 19 18 18 17 17 17 17 18 21
16 15 14 14 13 13 14 14 14 14 14 15 15 14 14 14 14 13 14 15 16 17 16 16 15 15 15 15 16 18 18 18 19 20 21 21 21 21 21 21 20 20 24
17 16 16 15 15 15 15 15 15 16 17 17 17 17 16 15 14 14 14 15 15 17 17 17 16 15 15 15 16 16 17 20 22 23 23 23 23 23 23 24 23 23 22
18 17 17 17 16 16 16 16 17 17 18 18 19 19 19 18 17 14 14 15 16 17 17 17 17 17 17 17 17 18 21 22 23 23 23 22 22 22 23 24 25 25 25
17 18 17 16 16 16 15 16 17 17 18 18 19 20 19 18 18 17 17 16 16 17 17 18 18 18 19 21 22 22 22 22 22 22 23 23 25 26 27 26 27 27 27
17 19 19 18 19 17 17 17 16 17 18 20 21 20 20 18 16 15 16 16 17 17 20 22 22 22 23 24 25 25 24 24 25 26 26 28 27 26 26 28 29 30 28
21 20 19 20 20 19 19 17 14 14 14 14 15 17 16 15 15 14 14 14 14 17 25 26 25 24 25 25 26 26 26 26 26 26 28 28 28 27 28 28 28 31 30
22 21 20 18 19 21 21 21 20 19 15 15 15 15 15 15 15 16 15 15 16 20 27 27 26 26 26 27 27 27 28 28 30 29 30 30 30 30 30 31 31 32 33
27 25 24 24 23 22 22 22 23 26 28 27 19 18 17 17 17 18 18 23 28 28 31 30 30 29 29 29 29 30 31 31 32 32 32 34 34 34 34 34 34 35 36
26 27 26 27 26 25 24 25 27 28 30 31 30 24 25 19 19 20 21 31 31 32 34 33 34 32 33 33 33 35 35 35 36 36 37 37 37 36 37 37 35 35 36
29 27 27 26 27 26 26 26 28 29 31 33 33 32 33 32 34 35 34 36 33 35 36 34 38 38 37 36 37 37 37 37 37 37 37 37 38 36 36 37 37 35 37
27 28 27 29 27 27 27 27 27 29 31 33 32 31 25 33 36 37 37 38 37 38 37 37 39 39 40 39 39 38 38 37 38 38 38 38 39 35 38 36 37 38 36
27 28 30 28 29 28 29 28 29 30 31 32 32 30 23 34 36 37 37 38 39 40 40 39 38 39 39 38 39 39 38 38 40 40 38 38 38 38 38 36 36 35 35
27 29 30 32 31 31 31 32 30 30 31 33 33 33 34 36 37 37 37 39 40 39 40 40 39 39 41 41 41 38 37 38 37 38 37 38 37 37 37 35 35 36 36
27 27 28 30 31 30 30 31 32 32 32 34 35 35 34 36 37 36 38 39 40 40 41 40 40 38 39 40 41 41 39 38 39 36 36 36 36 36 37 37 36 36 35
28 28 28 29 30 30 32 34 33 34 34 32 34 36 37 37 37 38 38 39 39 39 38 39 40 38 37 36 36 36 35 27 31 32 34 35 33 35 36 36 36 36 36
28 29 29 31 32 33 32 32 33 33 33 33 34 35 35 35 36 38 38 39 38 38 38 39 38 35 35 33 31 28 28 24 27 28 30 32 31 31 34 33 34 33 32